Location: Frankenwinheim
(49.8877°N, 10.3148°E)
Time: 06:29:32
(UTC+00:00)

Daily predictions for brighter satellites

Satellite Brightness Start Highest point End
(mag) Time Altitude Azimuth Time Altitude Azimuth Time Altitude Azimuth
Ariane Rocket 3.8 19:53:48 10° SE 19:58:24 37° ENE 20:03:03 10° N
CZ-4C R/B 3.1 19:56:25 10° SSE 19:59:31 19° ESE 20:03:05 10° ENE
CZ-4B R/B 3.4 19:56:18 10° S 19:59:50 53° W 20:03:32 10° NNW
Okean 2 Rocket 3.5 19:56:36 10° N 20:00:51 47° ENE 20:05:04 10° SSE
CZ-4B R/B 4.1 19:57:31 10° S 20:02:40 59° WSW 20:07:46 10° NNW
Cosmos 1869 3.1 19:59:49 10° N 20:03:23 62° ENE 20:06:53 10° SSE
Cosmos 1777 Rocket 4.0 20:02:10 10° S 20:07:18 63° ESE 20:12:27 10° NNE
Cosmos 2151 Rocket 3.7 20:03:11 10° N 20:07:41 68° ENE 20:12:10 10° SSE
BREEZE-M DEB (TANK) 3.5 20:06:39 10° S 20:08:30 17° SE 20:11:26 10° E
NOSS 3-3 (C) 4.4 20:04:33 10° SW 20:09:57 66° NW 20:16:27 10° NE
Cosmos 44 4.1 20:07:43 10° SSE 20:11:09 24° ESE 20:14:41 10° ENE
Lacrosse 5 rocket 3.2 20:10:22 10° WNW 20:13:49 30° N 20:17:19 10° NE
Cosmos 2242 Rocket 4.2 20:10:40 10° SSW 20:14:59 60° WNW 20:19:22 10° N
Okean 1 Rocket 3.4 20:10:45 10° N 20:15:02 51° ENE 20:19:16 10° SSE
Helios 1B rocket 3.2 20:13:49 10° S 20:17:21 44° W 20:20:54 10° NNW
Helios 1A 2.8 20:13:34 10° NNE 20:17:31 72° ESE 20:21:27 10° S
Meteor PRIRODA 4.5 20:16:09 10° SSW 20:18:45 34° W 20:21:23 10° NNW
Cosmos 2221 Rocket 3.9 20:16:37 10° SSE 20:20:57 50° E 20:25:21 10° NNE
TSX-5 4.3 20:19:24 10° NW 20:22:21 39° WSW 20:25:31 10° S
Gbstr 26 Del rocket 3.7 20:18:58 10° W 20:23:44 72° N 20:29:40 10° E
NOSS 3-4 (A) 4.1 20:18:35 10° NW 20:25:17 70° SW 20:33:06 10° SSE
Terra 2.5 20:20:41 10° S 20:25:17 54° W 20:29:56 10° NNW
NOSS 3-4 (C) 4.1 20:18:37 10° NW 20:25:21 70° SW 20:33:06 11° SSE
Cosmos 1455 Rocket 4.0 20:22:38 10° N 20:26:34 33° ENE 20:30:04 12° SE
SPOT 3 Rocket 3.6 20:23:42 10° SSE 20:28:52 72° ENE 20:34:05 10° N
Spot 2 Rocket 3.8 20:28:04 10° S 20:33:09 70° WSW 20:38:14 10° NNW
Sich 1 Rocket 3.6 20:28:33 10° N 20:33:09 86° E 20:37:41 10° S
IRS-1C Rocket 4.1 20:32:37 10° SSE 20:37:52 85° WSW 20:43:11 10° NNW
Cosmos 1818 3.8 20:32:39 10° NW 20:38:05 68° SW 20:42:53 13° SSE
ATLAS 5 CENTAUR R/B 4.4 20:37:35 10° NNW 20:39:03 12° N 20:40:35 10° NNE
Cosmos 1674 Rocket 3.7 20:34:49 10° SSW 20:39:14 80° W 20:43:42 10° N
Cosmos 1833 4.2 20:33:56 10° NNW 20:39:40 87° WSW 20:44:42 13° SSE
Cosmos 1538 Rocket 4.3 20:37:58 10° NNW 20:43:18 60° ENE 20:47:45 15° SE
ERS-1 Rocket 4.4 20:40:10 10° SSW 20:44:41 34° W 20:49:14 10° NNW
USA 245 4.0 20:41:23 10° S 20:45:26 47° WSW 20:48:44 10° NNW
IKONOS-2 4.4 20:42:12 10° NNE 20:46:22 85° ESE 20:50:29 10° SSW
Cosmos 2297 4.0 20:43:56 10° SW 20:49:35 73° WNW 20:55:18 10° NNE
Cosmos 1812 2.1 20:48:20 10° N 20:51:31 78° E 20:53:43 18° SSE
PSLV R/B 3.2 20:49:20 18° SSE 20:51:32 71° ENE 20:54:40 10° N
Okean-O 4.3 20:48:07 10° SSW 20:51:56 29° W 20:55:46 10° NW
Meteor 1-11 4.3 20:47:26 10° S 20:53:15 81° E 20:59:04 10° NNE
Cosmos 1092 Rocket 4.5 20:50:30 14° SSE 20:55:40 44° E 21:01:36 10° NNE
Meteor 2-1 Rocket 4.3 20:50:49 10° NNW 20:56:43 88° E 21:01:41 14° S
Okean O Rocket 3.9 20:55:36 10° SW 20:58:49 20° W 21:02:03 10° NW
BlueWalker 3 2.4 20:55:18 10° WNW 20:58:56 55° N 21:02:32 10° E
Cosmos 1025 Rocket 3.2 20:55:26 10° SSW 20:59:46 77° W 21:04:09 10° N
Cosmos 990 Rocket 3.9 20:54:42 10° SSW 20:59:52 82° ESE 21:05:07 10° NNE
Aureole 1 Rocket 4.4 21:03:27 10° S 21:09:50 57° ESE 21:17:07 10° NNE
RESURS DK-1 3.6 21:10:48 10° NNW 21:14:24 31° NE 21:17:10 15° ESE
Cosmos 1544 Rocket 4.5 21:13:03 10° N 21:17:05 35° ENE 21:19:31 20° SE
Cosmos 372 Rocket 4.1 21:14:58 15° S 21:18:58 52° ESE 21:23:54 10° NNE
USA 215 3.9 21:14:34 10° E 21:20:55 55° NNE 21:27:17 10° WNW
DNEPR-1 R/B 3.4 21:17:40 10° NW 21:21:56 89° SW 21:24:32 23° SE
Cosmos 2369 Rocket 3.4 21:19:33 10° SW 21:25:01 45° NW 21:30:29 10° NNE
ASTEX 1 4.4 21:21:53 10° N 21:26:31 44° WNW 21:31:06 10° SSW
Cosmos 1400 Rocket 3.9 21:23:10 10° N 21:26:35 30° ENE 21:28:20 20° ESE
Meteor 1-27 4.3 21:24:08 10° N 21:29:56 79° ENE 21:33:45 22° SSE
Cosmos 2297 Rocket 3.0 21:29:53 10° NNW 21:35:19 44° NE 21:39:27 17° ESE
ISS -3.9 21:32:53 10° WNW 21:36:13 75° SSW 21:37:42 30° ESE
COBE Rocket 4.0 21:31:46 10° N 21:36:24 68° WNW 21:40:36 12° SSW
DELTA 2 R/B (1) 4.4 21:32:32 10° SW 21:37:09 27° S 21:38:43 24° SSE
Ariane Rocket 4.2 21:32:58 11° SSW 21:37:19 35° W 21:41:56 10° NNW
Cosmos 1937 Rocket 3.7 21:34:18 22° S 21:37:23 50° ESE 21:42:20 10° NNE
Cosmos 2098 Rocket 2.3 21:36:04 10° N 21:39:17 78° E 21:40:46 33° SSE
Cosmos 1680 Rocket 3.8 21:34:03 10° NNW 21:39:17 59° ENE 21:42:31 23° SE
CZ-4C R/B 2.1 21:42:27 10° SW 21:46:53 71° NW 21:52:36 10° NE
ALOS 2 3.9 21:44:36 18° ESE 21:46:59 29° ENE 21:50:47 10° N
Cosmos 923 Rocket 3.9 21:45:26 10° NNW 21:50:39 88° WSW 21:53:32 27° SSE
Cosmos 1697 Rocket 4.2 21:50:21 17° ESE 21:51:46 18° E 21:55:32 10° ENE
Cosmos 44 3.8 21:47:41 10° WSW 21:51:55 54° NW 21:56:19 10° NNE
Lacrosse 5 rocket 2.8 21:48:22 10° NW 21:51:58 33° NNE 21:55:34 10° E
Cosmos 1975 Rocket 3.4 21:53:28 19° SSW 21:56:29 62° WNW 22:00:46 10° N
MetOp-A 3.6 21:55:24 31° SE 21:56:53 53° ENE 22:00:36 10° N
Cosmos 2228 3.2 21:56:59 10° NNW 22:01:09 64° W 22:03:10 29° S
Cosmos 2227 Rocket 3.2 22:02:42 10° NNW 22:08:02 39° NE 22:12:21 15° ESE
Cosmos 1867 3.6 22:03:58 10° SW 22:09:25 85° NW 22:14:56 10° NE
Gbstr 26 Del rocket 3.7 22:05:11 10° WNW 22:10:28 73° SSW 22:15:20 18° ESE
BREEZE M DEB (TANK) 3.5 22:08:11 10° WSW 22:10:09 26° SW 22:10:09 26° SW
Cosmos 494 Rocket 4.2 22:06:44 10° NNW 22:11:57 66° ENE 22:14:39 28° SE
BREEZE-M DEB (TANK) 2.8 22:09:41 10° W 22:17:20 88° S 22:19:47 14° E
Cosmos 1898 Rocket 4.0 22:16:18 11° SW 22:21:11 57° WNW 22:26:23 10° NNE
CZ-2C R/B 3.7 22:16:40 10° NNE 22:21:26 82° ESE 22:23:40 31° S
Cosmos 2266 Rocket 4.2 22:19:21 28° SSE 22:22:47 61° E 22:29:05 10° NNE
ATLAS 5 CENTAUR R/B 4.4 22:21:12 10° NNW 22:23:27 15° NNE 22:25:56 10° NE
Spot 4 3.8 22:21:20 33° SSE 22:23:31 81° ENE 22:28:21 10° NNW
Landsat 5 3.4 22:25:20 10° NNE 22:29:04 53° E 22:29:50 44° SE
Cosmos 1553 Rocket 4.4 22:26:03 10° NNW 22:32:11 58° W 22:35:55 25° SSW
ARIANE 5 R/B 2.8 22:30:39 35° S 22:32:23 64° WSW 22:36:49 10° NNW
Cosmos 2315 Rocket 4.3 22:26:28 10° N 22:32:49 61° ENE 22:36:19 27° SSE
BlueWalker 3 1.8 22:33:04 10° WNW 22:36:40 55° SSW 22:36:56 53° S
Cosmos 1315 Rocket 4.2 22:34:04 10° N 22:37:26 28° ENE 22:38:48 22° ESE
SL-08 ROCKET BODY 4.4 22:36:28 26° SSW 22:39:57 79° W 22:45:52 10° N
CZ-4C R/B 3.9 22:41:32 10° N 22:45:03 46° WNW 22:46:38 28° SW
Cosmos 1933 3.7 22:42:54 10° N 22:46:43 50° ENE 22:47:44 38° ESE
ATLAS 2AS CENTAUR R/B 3.4 22:42:52 10° NW 22:49:31 52° NE 22:56:03 10° ESE
Cosmos 1536 Rocket 3.8 22:48:20 33° SSW 22:50:09 65° WNW 22:54:34 10° N
Cosmos 1656 3.9 22:47:10 19° SW 22:51:14 70° WNW 22:56:47 10° NNE
RESURS DK-1 3.2 22:48:17 10° NW 22:51:52 32° WSW 22:52:29 30° SW
S3M 4.0 22:46:53 10° NNW 22:53:13 78° W 22:56:23 31° S
Cosmos 2263 Rocket 3.0 22:50:09 10° NNW 22:55:35 45° NE 22:59:46 16° ESE
Cosmos 1606 Rocket 3.5 22:53:05 10° NNW 22:57:28 74° W 22:58:50 43° S
Cosmos 1400 Rocket 4.3 22:58:55 10° NW 23:02:02 24° W 23:03:02 22° WSW
Cosmos 2058 3.2 23:01:15 37° SW 23:02:32 55° WNW 23:06:26 10° N
USA 215 3.2 22:58:08 15° SE 23:03:46 82° SSW 23:10:21 10° WNW
Cosmos 1602 3.0 23:07:46 78° SSE 23:07:56 83° E 23:11:09 10° NNE
Cosmos 1782 3.4 23:05:19 10° NNW 23:08:46 38° W 23:09:26 34° WSW
ISS -1.2 23:10:06 10° W 23:10:32 12° W 23:10:32 12° W
Cosmos 1655 Rocket 4.0 23:09:38 32° S 23:12:52 80° E 23:19:16 10° NNE
Cosmos 1862 3.2 23:18:16 50° SW 23:19:02 65° WNW 23:22:41 10° N
Cosmos 2297 Rocket 3.0 23:14:08 10° NW 23:19:17 37° WSW 23:21:13 29° SSW
Cosmos 1726 Rocket 3.9 23:16:07 10° NNW 23:20:40 60° W 23:22:11 39° SSW
Cosmos 2219 3.7 23:15:07 10° NNW 23:20:45 56° NE 23:24:45 19° SE
Cosmos 2058 Rocket 3.1 23:18:02 10° N 23:22:30 77° ENE 23:23:59 42° SSE
PSLV R/B 3.9 23:17:58 10° N 23:22:38 70° WNW 23:24:32 35° SSW
Dummy Sat-02 4.5 23:22:12 60° SSW 23:22:48 82° W 23:26:26 10° N
ALOS 2 3.6 23:22:00 29° SW 23:23:14 35° W 23:27:17 10° NNW
Lacrosse 5 rocket 1.0 23:25:45 10° WNW 23:29:42 88° SW 23:31:05 39° SE
Cosmos 1980 Rocket 2.6 23:28:23 33° SSE 23:30:22 47° ESE 23:35:44 10° NE
Orbus 7S? 4.5 23:29:20 36° SSE 23:30:34 43° SE 23:38:36 10° ENE
Cosmos 468 4.5 23:27:56 10° NNW 23:33:16 75° WSW 23:35:25 37° S
Cosmos 1356 Rocket 3.6 23:30:26 10° NNW 23:34:24 57° W 23:35:17 45° SW
Cosmos 1697 Rocket 2.7 23:32:02 30° SSW 23:35:00 83° WNW 23:40:43 10° NNE
CZ-4C R/B 4.4 23:31:56 10° WNW 23:36:15 27° NNW 23:41:33 10° NE
CZ-2C R/B 3.3 23:36:52 22° SE 23:40:22 54° ENE 23:45:50 10° N
Cosmos 1892 Rocket 3.8 23:39:40 38° SW 23:41:05 59° WNW 23:45:21 10° N
PSLV R/B 3.8 23:38:41 10° NNE 23:42:40 77° WNW 23:43:44 47° SSW
Cosmos 1441 Rocket 3.2 23:44:49 50° WSW 23:45:22 58° WNW 23:48:49 10° N
GEOS 3 Rocket 3.7 23:42:59 10° NE 23:48:15 77° NW 23:51:46 22° SW
Cosmos 1758 Rocket 4.1 23:47:54 34° SE 23:49:22 48° E 23:53:39 10° NNE
Meteor 2-3 Rocket 3.8 23:46:45 32° SSW 23:49:33 74° WNW 23:55:21 10° N
Cosmos 1626 Rocket 3.8 23:49:13 40° SSE 23:50:36 61° E 23:54:57 10° NNE
Cosmos 1844 Rocket 4.4 23:45:54 10° NNW 23:50:52 31° NE 23:55:48 10° ESE
CENTAUR R/B 4.3 23:49:44 11° SE 23:52:05 14° ESE 23:55:07 10° ENE
Cosmos 2227 Rocket 2.7 23:46:48 10° NW 23:52:09 44° WSW 23:54:06 32° SSW
